CZ-3C DEB, 40816

Orbit data source: Space-Track

CZ-3C DEB, 40816 is space debris in HEO originally from a launch on Sun, 31 Oct 2010 UTC launched from the Xichang Space Center, China (XSC). Debris objects in space refer to the collection of defunct objects orbiting the Earth. Examples of debris include non-operational satellites, rocket bodies, and fragments generated from explosions, collisions, or faulty payload assembly.

Loading next visibility...
Identifier
40816, 2010-057AH
Orbit
HEO
Last TLE update
6 months ago
Origin
Manufacturer
CALT
Mission
Spacecraft
Bus & Motor
Unknown
Mass
Unknown
Launch date (UTC)
2010-10-31 (15 years ago)
Launch vehicle
Unknown
Launch site
Xichang Space Center, China (XSC)
Object type
Payload
Rocket body
Debris
Shape & HBR
Unknown
Radar Cross Section
Small (<0.1 m²)

Expand to show TLE details & history

TLE from 6 months ago
0 CZ-3C DEB
1 40816U 10057AH  24298.43136527 -.00000069  00000-0 -64025-4 0  9996
2 40816  19.7804 245.1152 7117488 261.2264  19.5039  2.29515110 85915
Epoch: 2024-10-24T10:21Z
Definitive object data (Epoch: 2024-10-24T10:21:09.959Z)
Latitude
-0.00014°
Longitude
56.42022°
Altitude
7,053.72 km
Speed
6.552 km/s
True Right ascension
16h 20m 06s
True Declination
0° 00' 00"
Sunlit
Object was in daylight at TLE epoch
Visualization TLE readout
Latitude
-16.63904°
Longitude
-139.63326°
Altitude
26,749.215 km
Speed
2.765 km/s
Apparent Right ascension
03h 05m 21s
Apparent Declination
-20° 25' 06"
Sunlit
Object is in daylight
Visualization observer readout
Local Sidereal Time
13:56:07
Azimuth
317.71° NNW
Elevation
-65.52°
Doppler factor
1
Orbital elements
Apogee altitude
35,185.369 km
Perigee altitude
620.98 km
Semi-major axis
24,281.311 km
Eccentricity
0.7117488
Inclination
19.7804°
RAAN
245.1152°
Arg. of periapsis
261.2264°
True anomaly
99.03571°
Mean anomaly
19.5039°
Eccentric anomaly
51.35405°
Mean motion
0.57363 °/min
BSTAR
-0.000064025
Orbital period
627.58 mins
Loading maneuver chart data...
Loading SW <> Apogee altitude chart data...
Loading historical data...
Loading historical data...
Loading historical data...
Loading historical data...
Loading historical data...
Loading historical data...
Loading historical data...

CZ-3C DEB Visibility forecast

Observer location: undefined°, undefined°

Span
Click to sort rows by Start time (UTC) header in descending order
Start Az.
Max El. time (UTC)
Max El. Az.
Max El.
End time (UTC)
End Az.
33 mins2025-05-09 08:25:24.194Z208.642° SW2025-05-09 08:32:24.194Z148.435° SSE24.72°2025-05-09 08:58:24.194Z103.462° ESE
109 mins2025-05-09 14:20:24.194Z125.628° SE2025-05-09 15:20:24.194Z131.886° SE11.045°2025-05-09 16:09:24.194Z135.597° SSE
|